Temperature
16 16 16 16 16 15 15 15 15 15 15 15 15 15 15 15 15 15 15 15 15 15 15 15 15 15 15 15 15 15 15 15 15 15 15 15 15 15 15 15 15 15 15
16 16 16 16 15 15 15 15 15 15 15 15 15 15 15 15 15 15 15 15 15 15 15 15 15 15 15 15 15 15 15 14 15 14 15 15 14 14 14 14 14 14 14
16 16 16 15 15 15 15 15 15 15 15 15 15 14 14 14 14 14 15 15 15 15 15 15 14 14 14 14 14 14 14 14 14 14 14 14 14 14 14 14 14 14 14
16 16 16 15 15 15 15 15 15 15 14 15 14 14 14 14 14 14 14 14 14 14 14 14 14 14 14 14 14 14 14 14 14 14 14 14 14 14 14 14 14 14 14
16 16 16 15 15 15 15 15 15 14 14 14 14 14 14 14 14 14 14 14 14 14 14 14 14 14 14 14 14 14 14 14 14 14 14 14 14 14 14 13 13 13 13
16 16 15 15 15 15 15 15 14 14 14 14 14 14 14 14 14 14 14 14 14 14 14 14 14 14 14 14 14 14 14 14 14 14 14 13 13 13 13 13 13 13 13
16 15 15 15 15 15 15 14 14 14 14 14 14 14 14 14 14 14 14 14 14 14 14 14 14 14 13 13 14 13 13 13 13 13 13 13 13 13 13 13 13 13 13
15 15 15 15 15 15 15 14 14 14 14 14 14 14 13 13 13 13 13 13 13 14 14 14 13 13 13 13 13 13 13 13 13 13 13 13 13 12 12 12 12 12 12
15 15 15 15 15 15 14 14 14 14 14 14 14 14 13 13 13 13 13 13 13 13 13 13 13 13 13 13 13 13 13 13 13 13 13 12 12 12 12 12 12 12 12
15 15 15 15 15 14 14 14 14 14 14 14 14 14 14 14 13 13 13 13 13 13 13 13 13 13 13 13 13 13 13 13 12 12 12 12 12 12 12 12 12 12 12
15 15 15 15 15 14 14 14 14 14 14 14 14 14 14 13 13 13 12 12 13 13 13 13 13 13 13 13 13 12 12 12 12 12 12 12 12 12 12 12 12 12 12
15 15 14 14 14 14 14 14 14 14 14 14 14 14 14 14 13 13 13 12 12 12 12 12 12 13 13 12 12 12 12 12 12 12 12 12 12 12 12 12 12 12 12
15 15 14 14 14 14 14 14 14 14 14 14 14 13 13 13 13 13 13 12 12 12 12 12 12 12 12 12 12 12 12 12 12 12 12 12 12 12 12 12 11 11 12
15 15 14 14 14 14 14 14 14 14 13 13 13 13 13 13 13 13 13 13 12 12 12 12 12 12 12 12 12 12 12 12 12 12 12 11 11 12 12 12 11 11 11
15 14 14 14 14 14 14 13 13 13 13 13 13 13 13 13 13 13 13 13 12 12 12 12 12 12 12 12 12 12 12 12 11 11 11 11 11 11 11 11 11 11 11
14 14 14 14 14 14 13 13 13 13 13 13 13 13 13 13 13 13 13 12 12 12 12 12 12 12 12 11 11 11 11 11 11 11 11 11 11 11 11 11 11 11 11
14 14 14 14 14 13 13 13 13 13 13 13 13 13 13 13 13 13 12 12 12 12 12 12 12 11 11 11 11 11 11 11 11 11 11 11 11 11 11 11 11 11 10
14 14 14 14 13 13 13 13 13 13 13 13 13 12 12 12 12 12 12 12 12 12 12 12 11 11 11 11 11 11 11 11 11 11 11 11 11 11 11 10 10 10 10
14 14 14 13 13 13 13 13 13 13 13 12 12 12 12 12 12 12 12 12 12 12 11 11 11 11 11 11 11 11 11 11 11 11 10 10 10 10 10 10 10 10 10
14 14 13 13 13 13 13 13 12 12 12 12 12 12 12 12 12 12 12 12 12 11 11 11 11 11 11 11 11 11 11 11 11 10 10 10 10 10 10 10 10 10 10
14 13 13 13 13 12 12 12 12 12 12 12 12 12 12 12 12 12 12 11 11 11 11 11 11 11 11 11 11 10 10 10 10 10 10 10 10 10 10 10 10 10 10
13 13 13 13 12 12 12 12 12 12 12 12 12 12 12 12 11 11 11 11 11 11 11 11 11 11 11 11 10 10 10 10 10 10 10 10 10 10 10 10 9 9 9
13 13 13 12 12 12 12 12 12 12 12 12 12 12 11 11 11 11 11 11 11 11 11 11 11 11 11 11 10 10 10 10 10 10 10 10 10 10 9 9 9 9 9
13 12 12 12 12 12 12 11 11 11 11 11 11 11 11 11 11 11 11 11 11 11 11 10 10 10 10 10 10 10 10 10 9 9 9 9 9 9 9 9 9 9 9
12 12 12 12 12 12 11 11 11 11 11 11 11 11 11 11 11 10 10 10 10 10 10 10 10 10 10 10 10 9 9 9 9 9 9 9 9 9 9 9 9 9 8
12 12 12 11 11 11 11 11 11 11 11 11 11 11 11 10 10 10 10 10 10 10 10 10 10 10 10 10 9 9 9 9 9 9 9 8 8 8 8 8 8 8 8
Wind_Speed
3 2 2 3 3 4 4 4 4 5 5 5 6 6 5 6 6 6 6 7 8 8 8 7 7 7 7 6 6 5 5 5 5 4 3 3 2 2 1 1 2 2 2
4 3 3 3 3 4 5 5 5 4 3 4 5 5 5 5 5 6 5 6 7 8 7 7 8 8 8 7 7 6 6 5 5 4 4 3 3 3 2 2 2 3 3
6 4 3 3 3 5 6 6 5 5 4 4 4 4 4 4 5 5 5 5 5 6 6 7 7 8 8 8 7 6 5 5 5 5 5 4 4 4 3 3 3 3 3
7 5 3 3 4 5 4 4 4 4 4 3 3 3 3 3 4 4 4 4 4 4 5 6 7 7 7 7 7 6 5 6 6 6 5 5 4 4 3 3 4 4 3
7 5 3 3 5 4 3 3 3 3 3 3 3 3 3 3 3 4 4 4 4 4 4 5 6 6 6 6 6 6 6 6 7 7 7 6 5 4 4 4 5 4 4
7 6 4 4 4 4 3 3 3 3 2 2 3 3 2 2 3 3 2 3 3 4 4 4 4 4 5 5 6 6 5 6 6 6 7 7 6 5 5 5 4 4 4
7 6 4 3 3 3 3 3 3 3 2 2 3 3 3 3 3 2 2 2 3 3 4 3 3 3 3 4 5 5 5 5 7 7 8 8 8 8 6 6 5 4 4
6 5 4 3 3 3 3 3 3 2 1 2 3 2 2 3 3 3 2 2 2 3 3 3 3 3 2 3 4 5 4 5 6 7 8 7 7 7 7 7 6 6 5
5 5 4 4 3 3 3 2 3 4 3 1 2 3 3 2 1 3 3 3 2 2 2 2 2 2 2 3 3 4 5 5 6 6 7 7 7 7 6 6 6 6 5
3 4 4 4 3 3 3 2 3 3 4 2 1 1 2 4 3 0 3 3 3 2 1 1 2 2 3 3 3 4 5 5 5 5 6 6 6 6 6 6 6 6 5
1 2 4 3 3 2 2 2 2 3 3 3 2 2 2 2 3 3 0 2 3 2 2 1 1 2 3 3 3 3 4 5 5 5 5 5 5 5 6 6 6 6 6
0 0 2 2 2 2 2 2 2 2 2 2 2 2 3 3 3 3 3 1 1 2 2 1 1 1 2 3 3 3 4 4 5 5 5 6 5 5 5 5 6 6 5
1 1 1 2 2 2 2 2 2 2 2 2 3 2 2 2 3 3 3 2 1 1 2 2 1 1 2 2 2 3 4 4 4 4 5 6 6 5 5 5 6 6 6
3 3 3 3 2 2 2 1 1 1 1 2 2 2 2 1 2 3 3 4 2 1 1 2 1 1 1 3 3 3 3 3 2 3 4 4 5 5 5 5 6 6 5
2 2 2 2 2 2 2 2 1 1 1 1 2 2 2 1 2 2 3 4 4 2 2 2 1 1 1 3 3 3 2 1 2 2 3 3 3 4 4 4 5 6 5
2 2 2 2 2 2 2 2 1 1 1 1 2 2 2 1 2 2 2 2 3 3 2 3 2 2 2 3 3 3 2 2 1 2 2 2 3 4 3 4 4 5 5
3 3 3 3 3 3 2 1 1 1 2 1 2 3 3 2 2 2 2 2 2 2 2 2 1 1 1 2 2 2 2 2 1 1 1 1 2 2 2 3 4 4 5
4 4 4 4 4 3 3 3 3 2 2 2 3 3 3 2 2 2 2 2 1 2 3 2 1 1 1 2 2 2 1 1 1 1 2 2 1 1 2 2 3 3 4
3 3 3 4 4 4 4 3 3 2 2 3 3 3 4 4 3 2 3 2 2 1 2 3 2 1 1 1 1 1 1 0 1 1 1 1 0 0 1 1 2 2 2
4 4 3 4 3 3 4 3 3 3 2 2 2 3 4 5 5 4 3 3 2 2 2 2 2 1 1 1 2 1 0 1 1 1 1 1 1 1 1 1 1 1 1
4 4 3 3 2 3 4 4 4 3 3 2 2 3 4 5 5 5 4 4 4 3 2 2 2 1 1 2 2 2 2 1 1 1 0 1 1 1 2 3 3 3 2
3 3 3 3 3 3 5 6 5 4 3 3 3 3 3 4 5 6 6 6 7 6 5 4 3 4 5 4 3 3 3 2 2 2 1 1 1 2 3 4 5 4 3
3 3 4 4 4 5 6 6 7 4 4 4 4 4 3 3 3 2 4 5 6 7 8 7 5 6 6 6 5 4 4 4 4 3 2 2 1 2 4 5 6 6 4
4 4 4 4 4 5 6 7 7 4 4 4 4 5 4 4 3 3 3 2 3 4 5 5 6 7 6 6 7 6 6 3 1 1 3 2 2 2 3 4 6 6 6
4 4 4 4 4 4 5 6 6 4 4 4 4 4 5 5 5 5 3 3 3 3 4 5 6 6 6 7 7 4 4 3 2 2 2 2 2 1 2 3 5 7 7
5 4 4 4 5 5 5 6 6 4 4 4 3 4 6 6 7 7 5 4 5 4 3 2 3 3 3 5 8 7 6 4 3 3 3 3 2 1 1 2 3 4 5
Wind_Direction
113 102 95 88 84 82 82 75 73 66 62 65 75 83 80 75 72 68 68 78 79 80 86 89 86 89 87 84 88 87 83 74 62 58 65 64 59 47 82 134 137 120 116
124 115 98 81 79 85 87 84 80 74 63 66 64 71 76 76 72 70 69 73 75 74 77 84 85 84 81 81 86 80 75 67 56 53 60 56 54 45 65 104 118 121 119
127 121 107 93 93 99 96 85 77 75 70 65 61 62 71 76 75 71 73 70 67 70 74 84 85 88 83 82 79 77 75 68 61 59 59 58 55 50 59 95 101 111 111
124 113 108 104 106 101 95 90 83 81 69 64 57 51 59 69 73 78 76 70 69 68 71 79 82 88 90 87 81 72 74 68 64 60 60 61 63 58 64 82 93 98 99
121 117 115 111 107 95 91 101 89 99 93 75 69 61 52 52 51 75 73 70 74 75 74 73 80 84 84 79 76 72 69 67 66 63 59 60 67 68 68 78 85 87 88
117 117 115 112 108 98 91 99 105 93 105 108 85 61 39 36 38 51 63 71 72 73 73 72 74 74 74 71 68 70 73 73 70 68 62 55 65 69 77 79 86 87 82
123 125 120 113 110 118 127 126 120 103 97 109 85 49 22 27 37 25 36 53 52 63 71 74 82 73 60 66 66 64 75 80 74 69 65 57 57 59 70 71 77 80 75
123 127 128 128 126 119 113 122 129 130 141 131 122 110 38 7 8 19 21 39 30 62 69 69 83 86 81 72 71 65 74 87 82 74 67 60 63 67 70 67 66 62 58
125 127 133 131 134 134 141 148 152 146 164 197 148 141 141 186 308 349 12 17 11 32 44 67 83 97 100 87 93 75 79 82 81 74 68 61 63 66 70 66 67 64 60
119 131 137 136 132 135 146 164 148 150 152 173 203 135 152 152 148 359 346 353 4 18 14 58 76 92 110 108 101 83 75 74 78 72 67 63 62 62 62 57 59 59 63
113 133 140 133 133 144 155 156 136 146 158 169 171 144 113 105 119 138 209 328 353 345 351 24 85 98 115 121 117 103 84 69 65 61 59 57 58 60 60 55 51 55 56
333 57 144 142 150 154 163 168 149 147 166 164 158 155 158 154 161 151 173 203 290 316 343 357 63 110 132 141 136 120 104 80 66 56 49 48 48 53 58 52 47 47 50
222 232 167 167 169 177 177 167 145 161 173 166 170 176 175 175 162 154 153 168 183 314 345 348 311 145 146 146 151 132 116 98 78 60 50 46 44 46 47 44 42 42 47
212 207 185 181 181 180 170 158 149 178 161 168 165 154 156 172 156 156 159 152 134 347 337 293 321 220 158 162 164 143 142 119 97 73 56 43 39 40 38 37 39 40 46
204 186 190 185 183 181 172 156 182 196 142 184 184 157 154 181 164 157 155 157 157 175 240 257 273 270 183 166 168 156 157 150 102 84 66 48 37 36 35 38 42 39 43
198 176 181 174 178 183 175 157 187 205 161 201 184 156 159 165 150 139 148 148 146 161 201 230 230 229 189 168 170 161 166 140 116 103 84 57 43 39 41 43 43 41 40
188 194 197 187 190 198 199 195 220 197 186 194 187 177 181 159 150 158 144 136 136 142 174 244 238 200 164 170 146 160 172 169 178 141 136 96 55 32 39 52 48 45 43
195 198 194 188 195 197 194 194 212 213 204 202 207 189 189 171 169 172 160 168 180 172 165 196 214 193 191 182 163 168 162 182 198 194 157 143 122 42 30 43 47 51 52
194 195 184 191 199 197 197 199 195 201 213 218 209 198 195 178 187 194 185 186 192 175 159 167 203 206 189 143 119 139 139 300 204 167 152 150 154 155 28 18 29 42 41
190 194 195 205 207 208 205 203 194 198 212 216 209 203 193 185 192 192 192 192 175 146 136 152 179 192 186 169 136 148 206 304 259 180 183 234 239 265 302 309 317 335 350
196 197 197 205 207 208 215 205 197 192 198 211 216 213 210 204 202 196 195 189 172 164 158 164 188 196 209 187 195 189 189 230 287 221 206 260 250 267 274 277 273 274 272
199 192 193 201 215 230 227 210 201 193 199 205 215 227 227 217 221 217 210 194 178 175 185 186 201 208 219 211 194 183 169 147 256 244 164 260 204 249 256 250 253 255 247
200 204 207 208 223 238 230 219 213 195 200 208 209 213 225 230 216 209 215 209 205 202 191 185 198 213 211 206 187 185 188 187 213 211 153 236 246 250 259 257 249 240 239
203 208 214 221 227 242 233 224 217 204 206 214 208 203 202 212 215 189 188 195 224 229 218 206 212 219 215 205 192 188 186 179 192 204 160 195 231 251 272 267 250 237 240
208 214 217 221 230 248 239 228 217 203 212 223 216 206 197 201 212 188 175 194 233 262 254 239 240 230 221 203 177 149 151 156 204 226 185 174 206 256 281 272 258 244 240
212 214 224 222 225 236 243 237 213 198 207 219 221 221 217 213 210 194 189 193 217 236 237 251 253 250 221 199 186 183 182 182 185 216 204 175 184 156 280 274 260 248 239
Height
1526 1526 1526 1526 1526 1525 1525 1524 1524 1524 1523 1523 1523 1523 1522 1522 1522 1522 1522 1522 1522 1522 1521 1521 1521 1521 1520 1520 1520 1520 1519 1519 1519 1518 1518 1517 1517 1516 1516 1516 1517 1518 1519
1527 1527 1527 1527 1527 1526 1526 1525 1525 1525 1524 1524 1524 1524 1523 1523 1523 1523 1523 1522 1522 1522 1521 1521 1521 1521 1520 1519 1519 1519 1519 1518 1518 1517 1517 1516 1515 1514 1513 1513 1515 1516 1517
1528 1528 1528 1527 1527 1527 1527 1526 1526 1526 1525 1525 1525 1525 1524 1524 1524 1524 1523 1523 1522 1522 1521 1521 1521 1521 1521 1520 1519 1518 1518 1518 1517 1516 1515 1515 1514 1512 1512 1512 1513 1515 1516
1529 1529 1528 1528 1528 1528 1527 1527 1526 1526 1526 1526 1525 1525 1525 1525 1525 1525 1524 1523 1523 1522 1522 1522 1522 1521 1521 1520 1519 1519 1518 1518 1517 1516 1515 1514 1513 1513 1512 1512 1513 1513 1514
1530 1529 1529 1528 1528 1528 1527 1527 1527 1526 1526 1526 1526 1526 1526 1526 1525 1525 1525 1524 1523 1523 1522 1522 1522 1522 1521 1521 1520 1519 1518 1517 1517 1516 1515 1514 1513 1513 1512 1512 1512 1513 1513
1530 1529 1529 1529 1528 1528 1527 1527 1527 1527 1526 1526 1526 1526 1526 1527 1526 1526 1525 1525 1524 1523 1523 1523 1523 1523 1522 1521 1520 1519 1518 1518 1517 1516 1515 1514 1514 1513 1513 1512 1512 1513 1513
1530 1529 1529 1528 1528 1528 1527 1527 1526 1526 1526 1526 1526 1526 1527 1527 1527 1527 1526 1525 1525 1524 1524 1524 1523 1523 1522 1522 1521 1520 1519 1518 1517 1516 1515 1515 1514 1513 1513 1513 1512 1513 1513
1530 1529 1529 1528 1528 1527 1527 1526 1526 1525 1525 1526 1526 1526 1527 1528 1527 1527 1526 1526 1525 1525 1524 1524 1524 1523 1523 1522 1521 1520 1519 1519 1518 1517 1516 1515 1515 1514 1513 1513 1512 1512 1512
1529 1529 1528 1528 1527 1527 1526 1525 1525 1525 1525 1525 1526 1526 1526 1526 1527 1528 1527 1526 1526 1525 1525 1524 1524 1523 1523 1522 1521 1521 1519 1519 1518 1517 1517 1516 1516 1515 1514 1514 1513 1513 1512
1529 1528 1528 1527 1526 1526 1525 1524 1524 1524 1524 1524 1525 1525 1526 1526 1526 1527 1527 1527 1526 1526 1525 1525 1524 1524 1523 1522 1522 1521 1520 1520 1519 1518 1518 1517 1516 1516 1515 1515 1514 1513 1512
1528 1527 1527 1526 1526 1525 1525 1524 1523 1523 1524 1524 1524 1524 1525 1525 1525 1526 1526 1527 1527 1526 1526 1525 1525 1524 1524 1523 1523 1522 1522 1521 1520 1519 1519 1518 1517 1517 1516 1515 1515 1514 1513
1527 1527 1526 1526 1525 1524 1524 1523 1523 1523 1523 1523 1523 1524 1524 1524 1524 1525 1525 1525 1526 1526 1526 1525 1525 1525 1524 1524 1524 1523 1522 1522 1521 1520 1519 1519 1518 1517 1516 1516 1515 1514 1513
1526 1526 1525 1525 1524 1524 1523 1523 1522 1522 1522 1523 1523 1523 1523 1523 1524 1524 1524 1524 1525 1525 1525 1525 1525 1525 1524 1524 1524 1524 1523 1522 1521 1521 1520 1519 1518 1517 1517 1516 1515 1514 1512
1525 1524 1524 1524 1523 1523 1522 1522 1522 1522 1522 1522 1522 1522 1522 1522 1523 1523 1523 1523 1523 1524 1524 1525 1524 1525 1524 1524 1524 1524 1523 1523 1522 1521 1520 1519 1518 1518 1517 1516 1515 1513 1512
1523 1523 1523 1522 1522 1521 1521 1521 1521 1521 1521 1521 1521 1521 1521 1521 1522 1522 1522 1522 1523 1522 1523 1523 1523 1523 1524 1524 1524 1524 1523 1522 1522 1521 1520 1519 1518 1517 1517 1516 1515 1514 1513
1521 1521 1521 1520 1520 1520 1520 1520 1519 1520 1519 1519 1520 1520 1520 1520 1520 1520 1521 1521 1521 1521 1521 1521 1522 1522 1522 1523 1523 1523 1522 1522 1521 1521 1520 1519 1518 1517 1516 1516 1515 1514 1513
1519 1519 1519 1518 1518 1518 1518 1518 1518 1518 1518 1518 1518 1518 1518 1519 1519 1519 1519 1519 1519 1519 1519 1519 1520 1521 1521 1521 1522 1522 1522 1521 1521 1520 1519 1518 1518 1517 1516 1515 1514 1513 1513
1517 1516 1516 1516 1516 1516 1516 1516 1516 1516 1516 1516 1516 1516 1517 1517 1517 1517 1517 1517 1517 1517 1518 1517 1518 1518 1519 1520 1520 1520 1520 1520 1520 1519 1518 1518 1517 1516 1515 1514 1514 1513 1512
1514 1514 1514 1513 1513 1514 1514 1514 1514 1514 1513 1514 1514 1514 1514 1514 1515 1515 1515 1515 1515 1516 1516 1516 1516 1516 1517 1517 1518 1518 1518 1518 1518 1518 1517 1517 1516 1516 1515 1514 1513 1512 1512
1511 1511 1511 1510 1510 1511 1511 1511 1511 1511 1511 1511 1511 1512 1512 1512 1512 1512 1513 1513 1513 1514 1514 1514 1514 1514 1514 1515 1516 1516 1516 1517 1516 1516 1516 1516 1515 1514 1514 1513 1512 1511 1511
1507 1507 1507 1507 1507 1507 1507 1507 1508 1508 1508 1508 1509 1509 1509 1509 1510 1510 1510 1510 1511 1511 1511 1511 1511 1511 1512 1512 1513 1513 1514 1514 1514 1514 1514 1514 1513 1513 1512 1512 1511 1510 1510
1503 1503 1503 1503 1503 1503 1503 1504 1504 1504 1504 1505 1505 1506 1506 1506 1506 1507 1507 1508 1508 1508 1508 1509 1509 1509 1509 1510 1510 1511 1511 1511 1511 1512 1512 1512 1512 1511 1510 1510 1509 1509 1508
1499 1499 1499 1499 1499 1499 1499 1500 1500 1500 1501 1501 1501 1502 1502 1503 1503 1503 1504 1504 1505 1505 1506 1506 1506 1506 1506 1507 1507 1508 1508 1508 1509 1509 1509 1509 1509 1508 1509 1508 1507 1507 1506
1495 1495 1495 1495 1495 1495 1495 1496 1496 1496 1497 1497 1497 1498 1499 1499 1500 1500 1500 1500 1501 1502 1502 1503 1503 1503 1504 1504 1505 1505 1505 1506 1507 1507 1507 1506 1506 1506 1506 1505 1505 1505 1504
1490 1490 1491 1491 1491 1491 1491 1491 1492 1492 1492 1493 1493 1494 1495 1495 1496 1496 1496 1497 1497 1498 1499 1499 1500 1500 1500 1501 1501 1501 1502 1502 1502 1503 1503 1503 1503 1503 1503 1502 1502 1502 1502
1485 1486 1486 1486 1486 1487 1487 1487 1487 1487 1488 1488 1489 1490 1491 1491 1492 1492 1492 1493 1493 1493 1494 1495 1495 1496 1496 1497 1497 1498 1498 1499 1499 1499 1500 1500 1500 1500 1499 1499 1499 1499 1498